Weather History for Fort Stockton, TX

Change the Weather History Date:

Tuesday, March 19, 2013

  Actual Average Record
Temperature  
Mean Temperature 68 °F -  
Max Temperature 84 °F 69 °F 91 °F (2007)
Min Temperature 53 °F 45 °F 30 °F (1999)
Cooling Degree Days 2    
Growing Degree Days 18 (Base 50)    
Moisture  
Dew Point 19 °F    
Average Humidity 18    
Maximum Humidity 44    
Minimum Humidity 8    
Precipitation  
Precipitation 0.00 in - - ()
Sea Level Pressure  
Sea Level Pressure 29.85 in    
Wind  
Wind Speed 11 mph (WSW)    
Max Wind Speed 20 mph    
Max Gust Speed 29 mph    
Visibility 10 miles    
Events      
Averages and records for this station are not official NWS values.
T = Trace of Precipitation, MM = Missing Value Source: NWS Daily Summary

Daily Weather History Graph

Daily Weather History Graph

Search for Another Location

Airport:

Trip Planner

Search our weather history database for the weather conditions in past years. The results will help you decide how hot, cold, wet, or windy it might be!

Date:

Astronomy

Mar. 19, 2013 Rise Set
Actual Time 7:56 AM CDT 8:02 PM CDT
Civil Twilight 7:32 AM CDT 8:26 PM CDT
Nautical Twilight 7:04 AM CDT 8:54 PM CDT
Astronomical Twilight 6:35 AM CDT 9:23 PM CDT
Moon 1:09 PM CDT (3/19) 2:29 AM CDT (3/19)
Length of Visible Light 12h 54m
Length of Day
12h 06m
Waxing Crescent, 50% of the Moon is Illuminated
Mar 19
Waxing Crescent
Mar 19
First Quarter
Mar 27
Full
Apr 2
Last Quarter
Apr 10
New

Hourly Weather History & Observations

Time (CDT) Temp. Dew Point Humidity Pressure Visibility Wind Dir Wind Speed Gust Speed Precip Events Conditions
12:53 AM 55.9 °F 16.0 °F 21% 29.87 in 10.0 mi South 9.2 mph - N/A   Clear
1:53 AM 55.9 °F 16.0 °F 21% 29.87 in 10.0 mi South 10.4 mph - N/A   Clear
2:53 AM 55.9 °F 15.1 °F 20% 29.86 in 10.0 mi SSE 10.4 mph - N/A   Clear
3:53 AM 53.1 °F 15.1 °F 22% 29.86 in 10.0 mi SSE 9.2 mph - N/A   Clear
4:53 AM 57.9 °F 15.1 °F 19% 29.83 in 10.0 mi South 11.5 mph - N/A   Clear
5:53 AM 57.9 °F 15.1 °F 19% 29.83 in 10.0 mi SSW 13.8 mph - N/A   Clear
6:53 AM 57.0 °F 14.0 °F 18% 29.84 in 10.0 mi SSW 13.8 mph - N/A   Clear
7:53 AM 55.0 °F 16.0 °F 22% 29.86 in 10.0 mi SW 15.0 mph - N/A   Clear
8:53 AM 59.0 °F 16.0 °F 19% 29.88 in 10.0 mi SW 13.8 mph - N/A   Clear
9:53 AM 70.0 °F 18.0 °F 14% 29.89 in 10.0 mi SW 11.5 mph - N/A   Clear
10:53 AM 77.0 °F 17.1 °F 10% 29.86 in 10.0 mi WSW 13.8 mph - N/A   Clear
11:53 AM 80.1 °F 14.0 °F 8% 29.86 in 10.0 mi WSW 11.5 mph - N/A   Clear
1:53 PM 82.9 °F 15.1 °F 8% 29.82 in 10.0 mi West 9.2 mph 16.1 mph N/A   Clear
2:53 PM 81.0 °F 14.0 °F 8% 29.79 in 10.0 mi Variable 6.9 mph - N/A   Clear
3:53 PM 82.0 °F 15.1 °F 8% 29.77 in 10.0 mi NNW 15.0 mph 23.0 mph N/A   Clear
4:53 PM 81.0 °F 15.1 °F 8% 29.76 in 10.0 mi NW 15.0 mph 21.9 mph N/A   Clear
5:53 PM 81.0 °F 14.0 °F 8% 29.77 in 10.0 mi North 5.8 mph - N/A   Clear
6:53 PM 79.0 °F 14.0 °F 9% 29.78 in 10.0 mi North 4.6 mph - N/A   Clear
7:53 PM 75.0 °F 18.0 °F 12% 29.81 in 10.0 mi NNW 3.5 mph - N/A   Clear
8:53 PM 72.0 °F 17.1 °F 12% 29.84 in 10.0 mi North 4.6 mph - N/A   Clear
9:39 PM 68.0 °F 30.2 °F 24% 30.00 in 10.0 mi NE 19.6 mph 28.8 mph N/A   Clear
9:53 PM 66.9 °F 33.1 °F 28% 29.89 in 10.0 mi NE 19.6 mph 25.3 mph N/A   Clear
10:53 PM 62.1 °F 36.0 °F 38% 29.95 in 10.0 mi ENE 15.0 mph - N/A   Clear
11:53 PM 60.1 °F 37.9 °F 44% 29.99 in 10.0 mi NE 19.6 mph 27.6 mph N/A   Clear